TimePDT,TemperatureF,Dew PointF,Humidity,Sea Level PressureIn,VisibilityMPH,Wind Direction,Wind SpeedMPH,Gust SpeedMPH,PrecipitationIn,Events,Conditions,WindDirDegrees,DateUTC
12:53 AM,33.1,21.9,64,30.19,10.0,SE,3.5,-,N/A,,Clear,130,2012-10-07 07:53:00
1:53 AM,30.9,21.9,69,30.19,10.0,Calm,Calm,-,N/A,,Clear,0,2012-10-07 08:53:00
2:53 AM,33.1,21.9,64,30.18,10.0,South,3.5,-,N/A,,Clear,170,2012-10-07 09:53:00
3:53 AM,30.9,23.0,72,30.18,10.0,Calm,Calm,-,N/A,,Clear,0,2012-10-07 10:53:00
4:53 AM,30.0,21.0,69,30.18,10.0,SSE,3.5,-,N/A,,Clear,150,2012-10-07 11:53:00
5:53 AM,30.9,21.0,67,30.18,10.0,South,4.6,-,N/A,,Clear,170,2012-10-07 12:53:00
6:53 AM,25.0,16.0,69,30.19,10.0,SE,3.5,-,N/A,,Clear,130,2012-10-07 13:53:00
7:53 AM,30.9,21.9,69,30.19,10.0,South,3.5,-,N/A,,Clear,170,2012-10-07 14:53:00
8:53 AM,42.1,23.0,47,30.19,10.0,Calm,Calm,-,N/A,,Clear,0,2012-10-07 15:53:00
9:53 AM,46.9,25.0,42,30.19,10.0,Calm,Calm,-,N/A,,Clear,0,2012-10-07 16:53:00
10:53 AM,53.1,24.1,32,30.17,10.0,Calm,Calm,-,N/A,,Clear,0,2012-10-07 17:53:00
11:53 AM,57.9,26.1,30,30.15,10.0,NW,3.5,-,N/A,,Clear,320,2012-10-07 18:53:00
12:53 PM,62.1,25.0,24,30.12,10.0,Variable,3.5,-,N/A,,Clear,0,2012-10-07 19:53:00
1:53 PM,64.9,26.1,23,30.08,10.0,Variable,3.5,-,N/A,,Clear,0,2012-10-07 20:53:00
2:53 PM,68.0,28.0,22,30.05,10.0,NE,3.5,-,N/A,,Clear,40,2012-10-07 21:53:00
3:53 PM,69.1,28.0,22,30.02,10.0,Variable,4.6,-,N/A,,Clear,0,2012-10-07 22:53:00
4:53 PM,69.1,26.1,20,30.00,10.0,ENE,3.5,-,N/A,,Clear,60,2012-10-07 23:53:00
5:53 PM,64.9,30.0,27,29.99,10.0,Calm,Calm,-,N/A,,Clear,0,2012-10-08 00:53:00
6:53 PM,51.1,30.0,44,29.99,9.0,South,3.5,-,N/A,,Clear,180,2012-10-08 01:53:00
7:20 PM,46.4,33.8,62,29.97,1.8,Calm,Calm,-,N/A,,Haze,0,2012-10-08 02:20:00
7:27 PM,44.6,33.8,66,29.97,3.0,Calm,Calm,-,N/A,,Haze,0,2012-10-08 02:27:00
7:53 PM,44.1,30.9,60,29.98,7.0,Calm,Calm,-,N/A,,Clear,0,2012-10-08 02:53:00
8:53 PM,45.0,26.1,48,29.98,10.0,South,6.9,-,N/A,,Clear,190,2012-10-08 03:53:00
9:53 PM,43.0,24.1,47,29.98,10.0,SSE,3.5,-,N/A,,Clear,160,2012-10-08 04:53:00
10:53 PM,37.0,27.0,67,29.97,7.0,South,3.5,-,N/A,,Clear,170,2012-10-08 05:53:00
11:53 PM,39.9,24.1,53,29.97,6.0,South,5.8,-,N/A,,Haze,170,2012-10-08 06:53:00